• Em Portugal
  • Lista de países
  • Para 7 dias
  • Temperatura da água
  • Mapas de satélite
  • Mapa do tempo
  • Widgets de tempo
  • user-avatar
    Iniciar Sessão

    Previsão horária em Salta

    Hoje, 27 Maio, Domingo

    Tempo Temperatura Precipitação Vento Pressão Humidade
    00:00 +15°C° 0 mm 1 m/s 650 mmHg 59%
    01:00 +15°C° 0 mm 1 m/s 650 mmHg 57%
    02:00 +15°C° 0 mm 2 m/s 650 mmHg 56%
    03:00 +15°C° 0 mm 1 m/s 650 mmHg 55%
    04:00 +15°C° 0 mm 1 m/s 650 mmHg 54%
    05:00 +15°C° 0 mm 1 m/s 650 mmHg 53%
    06:00 +15°C° 0 mm 1 m/s 651 mmHg 50%
    07:00 +16°C° 0 mm 1 m/s 651 mmHg 48%
    08:00 +18°C° 0 mm 1 m/s 652 mmHg 46%
    09:00 +20°C° 0 mm 1 m/s 652 mmHg 41%
    10:00 +23°C° 0 mm 1 m/s 653 mmHg 36%
    11:00 +26°C° 0 mm 2 m/s 654 mmHg 31%
    12:00 +26°C° 0 mm 2 m/s 653 mmHg 31%
    13:00 +27°C° 0 mm 2 m/s 653 mmHg 31%
    14:00 +27°C° 0 mm 2 m/s 652 mmHg 31%
    15:00 +26°C° 0 mm 2 m/s 652 mmHg 37%
    16:00 +25°C° 0 mm 2 m/s 651 mmHg 43%
    17:00 +24°C° 0 mm 2 m/s 651 mmHg 49%
    18:00 +21°C° 0 mm 2 m/s 650 mmHg 57%
    19:00 +20°C° 0 mm 1 m/s 650 mmHg 65%
    20:00 +18°C° 0 mm 1 m/s 650 mmHg 73%
    21:00 +16°C° 0 mm 1 m/s 650 mmHg 72%
    22:00 +16°C° 0 mm 1 m/s 650 mmHg 71%
    23:00 +16°C° 0 mm 1 m/s 650 mmHg 70%

    Amanhã, 28 Maio, Segunda-feira

    Tempo Temperatura Precipitação Vento Pressão Humidade
    00:00 +16°C° 0 mm 2 m/s 650 mmHg 67%
    01:00 +17°C° 0 mm 2 m/s 650 mmHg 64%
    02:00 +17°C° 0 mm 2 m/s 650 mmHg 61%
    03:00 +17°C° 0 mm 2 m/s 649 mmHg 60%
    04:00 +17°C° 0 mm 2 m/s 649 mmHg 59%
    05:00 +17°C° 0 mm 2 m/s 649 mmHg 59%
    06:00 +17°C° 0 mm 2 m/s 650 mmHg 58%
    07:00 +18°C° 0 mm 2 m/s 650 mmHg 57%
    08:00 +18°C° 0 mm 2 m/s 650 mmHg 56%
    09:00 +20°C° 0 mm 2 m/s 651 mmHg 55%
    10:00 +21°C° 0 mm 3 m/s 651 mmHg 55%
    11:00 +22°C° 0 mm 3 m/s 651 mmHg 54%
    12:00 +24°C° 0 mm 3 m/s 650 mmHg 53%
    13:00 +24°C° 0 mm 3 m/s 650 mmHg 53%
    14:00 +25°C° 0 mm 3 m/s 649 mmHg 52%
    15:00 +24°C° 0 mm 2 m/s 649 mmHg 56%
    16:00 +23°C° 0 mm 2 m/s 649 mmHg 60%
    17:00 +21°C° 0 mm 2 m/s 649 mmHg 64%
    18:00 +21°C° 0 mm 1 m/s 649 mmHg 66%
    19:00 +20°C° 0 mm 1 m/s 649 mmHg 68%
    20:00 +19°C° 0 mm 1 m/s 650 mmHg 70%
    21:00 +19°C° 0 mm 1 m/s 650 mmHg 68%
    22:00 +19°C° 0 mm 1 m/s 650 mmHg 65%
    23:00 +18°C° 0 mm 2 m/s 650 mmHg 63%

    Depois de amanhã, 29 Maio, Terça-feira

    Tempo Temperatura Precipitação Vento Pressão Humidade
    00:00 +18°C° 0 mm 2 m/s 650 mmHg 60%
    01:00 +18°C° 0 mm 2 m/s 650 mmHg 57%
    02:00 +18°C° 0 mm 2 m/s 650 mmHg 55%
    03:00 +17°C° 0 mm 2 m/s 650 mmHg 52%
    04:00 +17°C° 0 mm 2 m/s 649 mmHg 50%
    05:00 +17°C° 0 mm 2 m/s 649 mmHg 47%
    06:00 +18°C° 0 mm 2 m/s 650 mmHg 46%
    07:00 +18°C° 0 mm 2 m/s 650 mmHg 45%
    08:00 +18°C° 0 mm 2 m/s 650 mmHg 44%
    09:00 +21°C° 0 mm 2 m/s 651 mmHg 42%
    10:00 +24°C° 0 mm 2 m/s 651 mmHg 39%
    11:00 +26°C° 0 mm 2 m/s 652 mmHg 36%
    12:00 +27°C° 0 mm 2 m/s 651 mmHg 34%
    13:00 +28°C° 0 mm 2 m/s 650 mmHg 32%
    14:00 +29°C° 0 mm 2 m/s 650 mmHg 30%
    15:00 +27°C° 0 mm 2 m/s 649 mmHg 37%
    16:00 +26°C° 0 mm 2 m/s 649 mmHg 43%
    17:00 +25°C° 0 mm 2 m/s 648 mmHg 50%
    18:00 +23°C° 0 mm 1 m/s 648 mmHg 55%
    19:00 +21°C° 0 mm 1 m/s 648 mmHg 59%
    20:00 +19°C° 0 mm 1 m/s 648 mmHg 64%
    21:00 +19°C° 0 mm 1 m/s 649 mmHg 64%
    22:00 +19°C° 0 mm 1 m/s 649 mmHg 63%
    23:00 +19°C° 0 mm 1 m/s 649 mmHg 62%

    30 Maio, Quarta-feira

    Tempo Temperatura Precipitação Vento Pressão Humidade
    00:00 +19°C° 0 mm 1 m/s 649 mmHg 59%
    01:00 +18°C° 0 mm 2 m/s 650 mmHg 56%
    02:00 +18°C° 0 mm 2 m/s 650 mmHg 53%
    03:00 +18°C° 0 mm 2 m/s 650 mmHg 51%
    04:00 +17°C° 0 mm 2 m/s 650 mmHg 49%
    05:00 +17°C° 0 mm 2 m/s 650 mmHg 48%
    06:00 +18°C° 0 mm 1 m/s 650 mmHg 48%
    07:00 +19°C° 0 mm 1 m/s 651 mmHg 48%
    08:00 +19°C° 0 mm 1 m/s 652 mmHg 47%
    09:00 +20°C° 0 mm 2 m/s 652 mmHg 49%
    10:00 +21°C° 0 mm 2 m/s 653 mmHg 51%
    11:00 +24°C° 0 mm 3 m/s 653 mmHg 52%
    12:00 +22°C° 0,1 mm 3 m/s 653 mmHg 55%
    13:00 +22°C° 0,1 mm 3 m/s 652 mmHg 58%
    14:00 +22°C° 0,1 mm 3 m/s 651 mmHg 61%
    15:00 +21°C° 0,1 mm 3 m/s 651 mmHg 65%
    16:00 +19°C° 0,1 mm 3 m/s 651 mmHg 68%
    17:00 +18°C° 0,1 mm 3 m/s 651 mmHg 72%
    18:00 +17°C° 0 mm 2 m/s 651 mmHg 74%
    19:00 +16°C° 0 mm 2 m/s 651 mmHg 77%
    20:00 +15°C° 0 mm 2 m/s 652 mmHg 79%
    21:00 +14°C° 0 mm 2 m/s 652 mmHg 79%
    22:00 +14°C° 0 mm 2 m/s 652 mmHg 78%
    23:00 +13°C° 0 mm 2 m/s 652 mmHg 77%

    31 Maio, Quinta-feira

    Tempo Temperatura Precipitação Vento Pressão Humidade
    00:00 +13°C° 0 mm 2 m/s 652 mmHg 75%
    01:00 +13°C° 0 mm 2 m/s 651 mmHg 72%
    02:00 +12°C° 0 mm 2 m/s 651 mmHg 70%
    03:00 +12°C° 0 mm 2 m/s 651 mmHg 69%
    04:00 +12°C° 0 mm 2 m/s 651 mmHg 67%
    05:00 +11°C° 0 mm 1 m/s 651 mmHg 66%
    06:00 +12°C° 0 mm 2 m/s 652 mmHg 65%
    07:00 +12°C° 0 mm 2 m/s 653 mmHg 63%
    08:00 +12°C° 0 mm 2 m/s 653 mmHg 62%
    09:00 +13°C° 0 mm 2 m/s 653 mmHg 58%
    10:00 +14°C° 0 mm 3 m/s 653 mmHg 55%
    11:00 +16°C° 0 mm 3 m/s 653 mmHg 52%
    12:00 +16°C° 0 mm 3 m/s 653 mmHg 51%
    13:00 +16°C° 0 mm 3 m/s 652 mmHg 51%
    14:00 +16°C° 0 mm 3 m/s 651 mmHg 51%
    15:00 +14°C° 0 mm 3 m/s 651 mmHg 54%
    16:00 +13°C° 0 mm 3 m/s 651 mmHg 57%
    17:00 +13°C° 0 mm 2 m/s 651 mmHg 60%
    18:00 +12°C° 0 mm 2 m/s 651 mmHg 62%
    19:00 +10°C° 0 mm 2 m/s 651 mmHg 65%
    20:00 +9°C° 0 mm 2 m/s 652 mmHg 68%
    21:00 +9°C° 0 mm 1 m/s 652 mmHg 68%
    22:00 +9°C° 0 mm 1 m/s 652 mmHg 68%
    23:00 +8°C° 0 mm 1 m/s 652 mmHg 68%

    1 Junho, Sexta-feira

    Tempo Temperatura Precipitação Vento Pressão Humidade
    00:00 +8°C° 0 mm 1 m/s 652 mmHg 69%
    01:00 +7°C° 0 mm 1 m/s 652 mmHg 70%
    02:00 +7°C° 0 mm 1 m/s 651 mmHg 71%
    03:00 +7°C° 0 mm 1 m/s 651 mmHg 71%
    04:00 +7°C° 0 mm 1 m/s 651 mmHg 70%
    05:00 +5°C° 0 mm 2 m/s 651 mmHg 70%
    06:00 +6°C° 0 mm 2 m/s 652 mmHg 67%
    07:00 +6°C° 0 mm 2 m/s 652 mmHg 65%
    08:00 +8°C° 0 mm 1 m/s 653 mmHg 62%
    09:00 +8°C° 0 mm 2 m/s 653 mmHg 57%
    10:00 +10°C° 0 mm 2 m/s 653 mmHg 53%
    11:00 +12°C° 0 mm 2 m/s 653 mmHg 48%
    12:00 +13°C° 0 mm 2 m/s 653 mmHg 46%
    13:00 +14°C° 0 mm 2 m/s 652 mmHg 45%
    14:00 +15°C° 0 mm 2 m/s 652 mmHg 44%
    15:00 +14°C° 0 mm 2 m/s 651 mmHg 48%
    16:00 +13°C° 0 mm 2 m/s 651 mmHg 53%
    17:00 +12°C° 0 mm 2 m/s 651 mmHg 57%
    18:00 +9°C° 0 mm 2 m/s 651 mmHg 63%
    19:00 +9°C° 0 mm 1 m/s 652 mmHg 69%
    20:00 +8°C° 0 mm 1 m/s 652 mmHg 75%
    21:00 +7°C° 0 mm 1 m/s 652 mmHg 76%
    22:00 +7°C° 0 mm 1 m/s 653 mmHg 77%
    23:00 +7°C° 0 mm 1 m/s 653 mmHg 77%
    Mostrar mais